Time,TemperatureF,DewpointF,PressureIn,WindDirection,WindDirectionDegrees,WindSpeedMPH,WindSpeedGustMPH,Humidity,HourlyPrecipIn,Conditions,Clouds,dailyrainin,SolarRadiationWatts/m^2,SoftwareType,DateUTC
2013-08-10 00:00:00,80.1,65.4,29.90,South,179,0.0,0.0,61,0.00,,---,0.00,0.00,VWS V14.00,2013-08-10 05:00:00,
2013-08-10 00:02:00,80.0,65.8,29.90,South,179,0.0,0.0,62,0.00,,---,0.00,0.00,VWS V14.00,2013-08-10 05:02:00,
2013-08-10 00:06:00,79.7,66.0,29.90,South,179,0.0,0.0,63,0.00,,---,0.00,0.00,VWS V14.00,2013-08-10 05:06:00,
2013-08-10 00:10:00,79.5,65.8,29.90,South,179,0.0,0.0,63,0.00,,---,0.00,0.00,VWS V14.00,2013-08-10 05:10:00,
2013-08-10 00:14:00,79.5,65.3,29.90,South,179,0.0,0.0,62,0.00,,---,0.00,0.00,VWS V14.00,2013-08-10 05:14:00,
2013-08-10 00:18:00,79.4,65.7,29.90,South,179,0.0,0.0,63,0.00,,---,0.00,0.00,VWS V14.00,2013-08-10 05:18:00,
2013-08-10 00:22:00,79.3,65.2,29.90,South,179,0.0,0.0,62,0.00,,---,0.00,0.00,VWS V14.00,2013-08-10 05:22:00,
2013-08-10 00:26:00,79.3,65.2,29.90,South,179,0.0,0.0,62,0.00,,---,0.00,0.00,VWS V14.00,2013-08-10 05:26:00,
2013-08-10 00:30:00,79.3,64.7,29.90,South,179,0.0,0.0,61,0.00,,---,0.00,0.00,VWS V14.00,2013-08-10 05:30:00,
2013-08-10 00:34:00,79.3,64.7,29.90,South,179,0.0,0.0,61,0.00,,---,0.00,0.00,VWS V14.00,2013-08-10 05:34:00,
2013-08-10 00:38:00,79.4,65.3,29.90,South,179,0.0,0.0,62,0.00,,---,0.00,0.00,VWS V14.00,2013-08-10 05:38:00,
2013-08-10 00:42:00,80.0,68.5,29.90,SE,128,2.0,3.0,68,0.00,,---,0.00,0.00,VWS V14.00,2013-08-10 05:42:00,
2013-08-10 00:46:00,81.2,67.4,29.91,SE,130,0.0,3.0,63,0.00,,---,0.00,0.00,VWS V14.00,2013-08-10 05:46:00,
2013-08-10 00:50:00,82.1,67.3,29.91,ESE,110,0.0,4.0,61,0.00,,---,0.00,0.00,VWS V14.00,2013-08-10 05:50:00,
2013-08-10 00:54:00,82.5,68.2,29.91,East,95,0.0,4.0,62,0.00,,---,0.00,0.00,VWS V14.00,2013-08-10 05:54:00,
2013-08-10 00:58:00,81.1,69.6,29.91,East,95,0.0,4.0,68,0.00,,---,0.00,0.00,VWS V14.00,2013-08-10 05:58:00,
2013-08-10 01:00:00,80.5,68.1,29.91,East,95,0.0,4.0,66,0.00,,---,0.00,0.00,VWS V14.00,2013-08-10 06:00:00,
2013-08-10 01:02:00,80.1,68.2,29.91,East,95,0.0,0.0,67,0.00,,---,0.00,0.00,VWS V14.00,2013-08-10 06:02:00,
2013-08-10 01:06:00,79.7,68.6,29.91,East,95,0.0,0.0,69,0.00,,---,0.00,0.00,VWS V14.00,2013-08-10 06:06:00,
2013-08-10 01:10:00,79.4,69.2,29.91,East,95,0.0,0.0,71,0.00,,---,0.00,0.00,VWS V14.00,2013-08-10 06:10:00,
2013-08-10 01:14:00,79.3,69.5,29.91,East,95,0.0,0.0,72,0.00,,---,0.00,0.00,VWS V14.00,2013-08-10 06:14:00,
2013-08-10 01:18:00,79.3,69.9,29.91,East,95,0.0,0.0,73,0.00,,---,0.00,0.00,VWS V14.00,2013-08-10 06:18:00,
2013-08-10 01:22:00,79.3,69.9,29.91,East,95,0.0,0.0,73,0.00,,---,0.00,0.00,VWS V14.00,2013-08-10 06:22:00,
2013-08-10 01:26:00,79.3,69.9,29.91,East,95,0.0,0.0,73,0.00,,---,0.00,0.00,VWS V14.00,2013-08-10 06:26:00,
2013-08-10 01:30:00,79.3,69.5,29.91,East,95,0.0,0.0,72,0.00,,---,0.00,0.00,VWS V14.00,2013-08-10 06:30:00,
2013-08-10 01:34:00,79.2,69.8,29.91,East,95,0.0,0.0,73,0.00,,---,0.00,0.00,VWS V14.00,2013-08-10 06:34:00,
2013-08-10 01:38:00,78.9,69.9,29.91,East,95,0.0,0.0,74,0.00,,---,0.00,0.00,VWS V14.00,2013-08-10 06:38:00,
2013-08-10 01:42:00,78.7,70.1,29.91,East,95,0.0,0.0,75,0.00,,---,0.00,0.00,VWS V14.00,2013-08-10 06:42:00,
2013-08-10 01:46:00,78.5,70.3,29.91,East,95,0.0,0.0,76,0.00,,---,0.00,0.00,VWS V14.00,2013-08-10 06:46:00,
2013-08-10 01:51:00,78.4,70.2,29.91,East,95,0.0,0.0,76,0.00,,---,0.00,0.00,VWS V14.00,2013-08-10 06:51:00,
2013-08-10 01:55:00,78.5,70.7,29.91,East,95,0.0,0.0,77,0.00,,---,0.00,0.00,VWS V14.00,2013-08-10 06:55:00,
2013-08-10 01:59:00,78.6,70.8,29.91,East,95,0.0,0.0,77,0.00,,---,0.00,0.00,VWS V14.00,2013-08-10 06:59:00,
2013-08-10 02:00:00,78.5,70.7,29.91,East,95,0.0,0.0,77,0.00,,---,0.00,0.00,VWS V14.00,2013-08-10 07:00:00,
2013-08-10 02:03:00,78.1,70.7,29.91,East,95,0.0,0.0,78,0.00,,---,0.00,0.00,VWS V14.00,2013-08-10 07:03:00,
2013-08-10 02:07:00,77.8,70.4,29.91,East,95,0.0,0.0,78,0.00,,---,0.00,0.00,VWS V14.00,2013-08-10 07:07:00,
2013-08-10 02:11:00,77.5,70.5,29.91,East,95,0.0,0.0,79,0.00,,---,0.00,0.00,VWS V14.00,2013-08-10 07:11:00,
2013-08-10 02:15:00,77.5,70.5,29.91,East,95,0.0,0.0,79,0.00,,---,0.00,0.00,VWS V14.00,2013-08-10 07:15:00,
2013-08-10 02:19:00,77.5,70.5,29.91,East,95,0.0,0.0,79,0.00,,---,0.00,0.00,VWS V14.00,2013-08-10 07:19:00,
2013-08-10 02:23:00,77.3,70.3,29.91,East,95,0.0,0.0,79,0.00,,---,0.00,0.00,VWS V14.00,2013-08-10 07:23:00,
2013-08-10 02:27:00,77.3,70.3,29.91,East,95,0.0,0.0,79,0.00,,---,0.00,0.00,VWS V14.00,2013-08-10 07:27:00,
2013-08-10 02:30:00,77.1,69.7,29.91,East,95,0.0,0.0,78,0.00,,---,0.00,0.00,VWS V14.00,2013-08-10 07:30:00,
2013-08-10 02:31:00,77.1,69.7,29.91,East,95,0.0,0.0,78,0.00,,---,0.00,0.00,VWS V14.00,2013-08-10 07:31:00,
2013-08-10 02:35:00,76.9,69.5,29.91,East,95,0.0,0.0,78,0.00,,---,0.00,0.00,VWS V14.00,2013-08-10 07:35:00,
2013-08-10 02:39:00,76.8,69.4,29.91,East,95,0.0,0.0,78,0.00,,---,0.00,0.00,VWS V14.00,2013-08-10 07:39:00,
2013-08-10 02:43:00,76.5,69.1,29.91,East,95,0.0,0.0,78,0.00,,---,0.00,0.00,VWS V14.00,2013-08-10 07:43:00,
2013-08-10 02:47:00,76.4,69.4,29.91,East,95,0.0,0.0,79,0.00,,---,0.00,0.00,VWS V14.00,2013-08-10 07:47:00,
2013-08-10 02:51:00,76.2,69.6,29.91,East,95,0.0,0.0,80,0.00,,---,0.00,0.00,VWS V14.00,2013-08-10 07:51:00,
2013-08-10 02:55:00,76.0,69.4,29.91,East,95,0.0,0.0,80,0.00,,---,0.00,0.00,VWS V14.00,2013-08-10 07:55:00,
2013-08-10 02:59:00,75.8,69.2,29.91,East,95,0.0,0.0,80,0.00,,---,0.00,0.00,VWS V14.00,2013-08-10 07:59:00,
2013-08-10 03:00:00,75.8,69.2,29.91,East,95,0.0,0.0,80,0.00,,---,0.00,0.00,VWS V14.00,2013-08-10 08:00:00,
2013-08-10 03:03:00,75.6,69.4,29.91,East,95,0.0,0.0,81,0.00,,---,0.00,0.00,VWS V14.00,2013-08-10 08:03:00,
2013-08-10 03:07:00,75.5,68.9,29.91,East,95,0.0,0.0,80,0.00,,---,0.00,0.00,VWS V14.00,2013-08-10 08:07:00,
2013-08-10 03:11:00,75.5,69.3,29.91,East,95,0.0,0.0,81,0.00,,---,0.00,0.00,VWS V14.00,2013-08-10 08:11:00,
2013-08-10 03:15:00,75.3,69.1,29.91,East,95,0.0,0.0,81,0.00,,---,0.00,0.00,VWS V14.00,2013-08-10 08:15:00,
2013-08-10 03:19:00,75.1,68.9,29.91,East,95,0.0,0.0,81,0.00,,---,0.00,0.00,VWS V14.00,2013-08-10 08:19:00,
2013-08-10 03:23:00,75.0,68.8,29.91,East,95,0.0,0.0,81,0.00,,---,0.00,0.00,VWS V14.00,2013-08-10 08:23:00,
2013-08-10 03:27:00,74.9,68.7,29.91,East,95,0.0,0.0,81,0.00,,---,0.00,0.00,VWS V14.00,2013-08-10 08:27:00,
2013-08-10 03:30:00,74.9,68.3,29.92,East,95,0.0,0.0,80,0.00,,---,0.00,0.00,VWS V14.00,2013-08-10 08:30:00,
2013-08-10 03:31:00,75.0,68.4,29.92,East,95,0.0,0.0,80,0.00,,---,0.00,0.00,VWS V14.00,2013-08-10 08:31:00,
2013-08-10 03:35:00,74.9,68.3,29.92,East,95,0.0,0.0,80,0.00,,---,0.00,0.00,VWS V14.00,2013-08-10 08:35:00,
2013-08-10 03:39:00,75.1,68.2,29.92,East,95,0.0,0.0,79,0.00,,---,0.00,0.00,VWS V14.00,2013-08-10 08:39:00,
2013-08-10 03:43:00,75.0,68.1,29.92,East,95,0.0,0.0,79,0.00,,---,0.00,0.00,VWS V14.00,2013-08-10 08:43:00,
2013-08-10 03:47:00,74.9,67.9,29.93,East,95,0.0,0.0,79,0.00,,---,0.00,0.00,VWS V14.00,2013-08-10 08:47:00,
2013-08-10 03:52:00,74.9,67.9,29.93,East,95,0.0,0.0,79,0.00,,---,0.00,0.00,VWS V14.00,2013-08-10 08:52:00,
2013-08-10 03:56:00,74.9,67.9,29.93,East,96,0.0,0.0,79,0.00,,---,0.00,0.00,VWS V14.00,2013-08-10 08:56:00,
2013-08-10 04:00:00,74.9,68.3,29.92,East,96,0.0,0.0,80,0.00,,---,0.00,0.00,VWS V14.00,2013-08-10 09:00:00,
2013-08-10 04:04:00,74.9,68.3,29.92,East,96,0.0,0.0,80,0.00,,---,0.00,0.00,VWS V14.00,2013-08-10 09:04:00,
2013-08-10 04:08:00,74.9,68.7,29.92,East,96,0.0,0.0,81,0.00,,---,0.00,0.00,VWS V14.00,2013-08-10 09:08:00,
2013-08-10 04:12:00,75.0,68.8,29.92,East,96,0.0,0.0,81,0.00,,---,0.00,0.00,VWS V14.00,2013-08-10 09:12:00,
2013-08-10 04:16:00,75.2,69.0,29.92,South,184,2.0,2.0,81,0.00,,---,0.00,0.00,VWS V14.00,2013-08-10 09:16:00,
2013-08-10 04:20:00,75.5,69.3,29.92,South,184,0.0,2.0,81,0.00,,---,0.00,0.00,VWS V14.00,2013-08-10 09:20:00,
2013-08-10 04:24:00,76.0,69.4,29.92,South,184,0.0,2.0,80,0.00,,---,0.00,0.00,VWS V14.00,2013-08-10 09:24:00,
2013-08-10 04:28:00,76.4,69.4,29.92,South,184,0.0,2.0,79,0.00,,---,0.00,0.00,VWS V14.00,2013-08-10 09:28:00,
2013-08-10 04:30:00,76.4,69.4,29.92,South,184,0.0,2.0,79,0.00,,---,0.00,0.00,VWS V14.00,2013-08-10 09:30:00,
2013-08-10 04:32:00,76.6,69.6,29.92,South,184,0.0,0.0,79,0.00,,---,0.00,0.00,VWS V14.00,2013-08-10 09:32:00,
2013-08-10 04:36:00,77.0,70.0,29.92,South,184,0.0,1.0,79,0.00,,---,0.00,0.00,VWS V14.00,2013-08-10 09:36:00,
2013-08-10 04:40:00,77.3,69.9,29.92,South,184,0.0,1.0,78,0.00,,---,0.00,0.00,VWS V14.00,2013-08-10 09:40:00,
2013-08-10 04:44:00,77.2,69.8,29.92,South,189,0.0,3.0,78,0.00,,---,0.00,0.00,VWS V14.00,2013-08-10 09:44:00,
2013-08-10 04:48:00,77.3,69.9,29.92,South,181,0.0,3.0,78,0.00,,---,0.00,0.00,VWS V14.00,2013-08-10 09:48:00,
2013-08-10 04:52:00,77.7,69.9,29.92,South,173,0.0,3.0,77,0.00,,---,0.00,0.00,VWS V14.00,2013-08-10 09:52:00,
2013-08-10 04:56:00,77.8,70.4,29.92,South,186,1.0,3.0,78,0.00,,---,0.00,0.00,VWS V14.00,2013-08-10 09:56:00,
2013-08-10 05:00:00,77.9,70.1,29.92,South,182,0.0,3.0,77,0.00,,---,0.00,0.00,VWS V14.00,2013-08-10 10:00:00,
2013-08-10 05:04:00,77.9,70.1,29.92,SSW,192,0.0,0.0,77,0.00,,---,0.00,0.00,VWS V14.00,2013-08-10 10:04:00,
2013-08-10 05:08:00,78.0,70.6,29.92,SSW,195,0.0,3.0,78,0.00,,---,0.00,0.00,VWS V14.00,2013-08-10 10:08:00,
2013-08-10 05:12:00,78.4,70.6,29.92,South,190,0.0,3.0,77,0.00,,---,0.00,0.00,VWS V14.00,2013-08-10 10:12:00,
2013-08-10 05:16:00,78.3,70.9,29.92,South,190,0.0,3.0,78,0.00,,---,0.00,0.00,VWS V14.00,2013-08-10 10:16:00,
2013-08-10 05:20:00,77.8,70.4,29.92,South,190,0.0,3.0,78,0.00,,---,0.00,0.00,VWS V14.00,2013-08-10 10:20:00,
2013-08-10 05:24:00,77.8,70.4,29.92,South,190,0.0,3.0,78,0.00,,---,0.00,0.00,VWS V14.00,2013-08-10 10:24:00,
2013-08-10 05:28:00,77.8,70.4,29.92,SSW,192,0.0,3.0,78,0.00,,---,0.00,0.00,VWS V14.00,2013-08-10 10:28:00,
2013-08-10 05:30:00,77.9,70.5,29.93,SW,217,1.0,3.0,78,0.00,,---,0.00,0.00,VWS V14.00,2013-08-10 10:30:00,
2013-08-10 05:32:00,77.8,70.4,29.93,SW,225,0.0,1.0,78,0.00,,---,0.00,0.00,VWS V14.00,2013-08-10 10:32:00,
2013-08-10 05:37:00,77.7,70.3,29.93,SW,225,0.0,1.0,78,0.00,,---,0.00,0.00,VWS V14.00,2013-08-10 10:37:00,
2013-08-10 05:41:00,77.6,70.2,29.93,SW,225,0.0,1.0,78,0.00,,---,0.00,0.00,VWS V14.00,2013-08-10 10:41:00,
2013-08-10 05:45:00,77.5,70.1,29.93,SW,225,0.0,1.0,78,0.00,,---,0.00,0.00,VWS V14.00,2013-08-10 10:45:00,
2013-08-10 05:49:00,77.3,70.3,29.93,SW,225,0.0,1.0,79,0.00,,---,0.00,0.00,VWS V14.00,2013-08-10 10:49:00,
2013-08-10 05:53:00,77.1,70.1,29.93,SW,225,0.0,1.0,79,0.00,,---,0.00,0.00,VWS V14.00,2013-08-10 10:53:00,
2013-08-10 05:57:00,76.9,70.6,29.93,SW,225,0.0,1.0,81,0.00,,---,0.00,0.00,VWS V14.00,2013-08-10 10:57:00,
2013-08-10 06:00:00,77.1,70.8,29.94,SSW,195,0.0,2.0,81,0.00,,---,0.00,0.00,VWS V14.00,2013-08-10 11:00:00,
2013-08-10 06:01:00,77.1,70.8,29.94,SSW,195,0.0,0.0,81,0.00,,---,0.00,0.00,VWS V14.00,2013-08-10 11:01:00,
2013-08-10 06:05:00,77.2,70.9,29.94,SSW,195,0.0,0.0,81,0.00,,---,0.00,0.00,VWS V14.00,2013-08-10 11:05:00,
2013-08-10 06:09:00,77.1,70.8,29.94,SSW,195,0.0,0.0,81,0.00,,---,0.00,0.00,VWS V14.00,2013-08-10 11:09:00,
2013-08-10 06:13:00,77.1,70.8,29.94,SSW,195,0.0,0.0,81,0.00,,---,0.00,5.00,VWS V14.00,2013-08-10 11:13:00,
2013-08-10 06:17:00,77.1,70.8,29.94,SSW,195,0.0,0.0,81,0.00,,---,0.00,9.00,VWS V14.00,2013-08-10 11:17:00,
2013-08-10 06:21:00,77.1,70.8,29.94,SSW,200,0.0,0.0,81,0.00,,---,0.00,12.00,VWS V14.00,2013-08-10 11:21:00,
2013-08-10 06:25:00,77.1,70.8,29.94,SSW,206,0.0,0.0,81,0.00,,---,0.00,14.00,VWS V14.00,2013-08-10 11:25:00,
2013-08-10 06:29:00,77.2,70.9,29.93,SSW,206,0.0,0.0,81,0.00,,---,0.00,19.00,VWS V14.00,2013-08-10 11:29:00,
2013-08-10 06:30:00,77.3,71.0,29.93,SSW,206,0.0,0.0,81,0.00,,---,0.00,19.00,VWS V14.00,2013-08-10 11:30:00,
2013-08-10 06:33:00,77.3,71.0,29.93,SSW,205,0.0,0.0,81,0.00,,---,0.00,23.00,VWS V14.00,2013-08-10 11:33:00,
2013-08-10 06:37:00,77.5,71.2,29.93,SSW,205,0.0,0.0,81,0.00,,---,0.00,30.00,VWS V14.00,2013-08-10 11:37:00,
2013-08-10 06:41:00,77.5,71.2,29.93,SSW,205,0.0,0.0,81,0.00,,---,0.00,35.00,VWS V14.00,2013-08-10 11:41:00,
2013-08-10 06:45:00,77.7,71.4,29.94,SSW,205,0.0,0.0,81,0.00,,---,0.00,40.00,VWS V14.00,2013-08-10 11:45:00,
2013-08-10 06:49:00,78.0,71.7,29.94,SSW,205,0.0,0.0,81,0.00,,---,0.00,46.00,VWS V14.00,2013-08-10 11:49:00,
2013-08-10 06:53:00,78.2,71.9,29.94,SSW,205,0.0,0.0,81,0.00,,---,0.00,58.00,VWS V14.00,2013-08-10 11:53:00,
2013-08-10 06:57:00,78.4,72.1,29.94,SSW,213,0.0,0.0,81,0.00,,---,0.00,65.00,VWS V14.00,2013-08-10 11:57:00,
2013-08-10 07:00:00,78.6,71.9,29.95,SSW,213,0.0,0.0,80,0.00,,---,0.00,63.00,VWS V14.00,2013-08-10 12:00:00,
2013-08-10 07:01:00,78.7,72.0,29.95,SSW,212,1.0,1.0,80,0.00,,---,0.00,63.00,VWS V14.00,2013-08-10 12:01:00,
2013-08-10 07:05:00,79.0,71.9,29.95,South,188,2.0,3.0,79,0.00,,---,0.00,65.00,VWS V14.00,2013-08-10 12:05:00,
2013-08-10 07:09:00,79.4,72.3,29.95,South,178,0.0,3.0,79,0.00,,---,0.00,74.00,VWS V14.00,2013-08-10 12:09:00,
2013-08-10 07:13:00,79.8,72.7,29.95,South,171,0.0,3.0,79,0.00,,---,0.00,76.00,VWS V14.00,2013-08-10 12:13:00,
2013-08-10 07:17:00,80.0,72.5,29.95,South,177,0.0,3.0,78,0.00,,---,0.00,70.00,VWS V14.00,2013-08-10 12:17:00,
2013-08-10 07:21:00,80.3,72.4,29.95,South,182,0.0,5.0,77,0.00,,---,0.00,70.00,VWS V14.00,2013-08-10 12:21:00,
2013-08-10 07:25:00,80.6,73.1,29.95,South,181,0.0,5.0,78,0.00,,---,0.00,91.00,VWS V14.00,2013-08-10 12:25:00,
2013-08-10 07:29:00,80.8,72.9,29.96,WSW,239,0.0,5.0,77,0.00,,---,0.00,76.00,VWS V14.00,2013-08-10 12:29:00,
2013-08-10 07:30:00,80.8,72.9,29.96,SW,227,0.0,5.0,77,0.00,,---,0.00,76.00,VWS V14.00,2013-08-10 12:30:00,
2013-08-10 07:33:00,81.1,73.2,29.96,SSW,196,0.0,2.0,77,0.00,,---,0.00,77.00,VWS V14.00,2013-08-10 12:33:00,
2013-08-10 07:38:00,81.4,73.1,29.96,South,172,1.0,2.0,76,0.00,,---,0.00,79.00,VWS V14.00,2013-08-10 12:38:00,
2013-08-10 07:42:00,81.5,73.6,29.96,South,189,1.0,2.0,77,0.00,,---,0.00,86.00,VWS V14.00,2013-08-10 12:42:00,
2013-08-10 07:46:00,81.7,73.0,29.96,South,190,0.0,3.0,75,0.00,,---,0.00,165.00,VWS V14.00,2013-08-10 12:46:00,
2013-08-10 07:50:00,81.8,73.5,29.96,South,189,0.0,3.0,76,0.00,,---,0.00,202.00,VWS V14.00,2013-08-10 12:50:00,
2013-08-10 07:54:00,82.2,73.5,29.96,South,188,0.0,4.0,75,0.00,,---,0.00,114.00,VWS V14.00,2013-08-10 12:54:00,
2013-08-10 07:58:00,82.5,73.0,29.96,SSW,193,0.0,4.0,73,0.00,,---,0.00,102.00,VWS V14.00,2013-08-10 12:58:00,
2013-08-10 08:00:00,82.8,73.3,29.96,SW,235,0.0,4.0,73,0.00,,---,0.00,100.00,VWS V14.00,2013-08-10 13:00:00,
2013-08-10 08:02:00,83.0,73.9,29.96,SW,235,0.0,0.0,74,0.00,,---,0.00,118.00,VWS V14.00,2013-08-10 13:02:00,
2013-08-10 08:06:00,83.5,73.1,29.96,SSW,195,1.0,4.0,71,0.00,,---,0.00,171.00,VWS V14.00,2013-08-10 13:06:00,
2013-08-10 08:10:00,83.8,73.4,29.96,SW,219,5.0,5.0,71,0.00,,---,0.00,128.00,VWS V14.00,2013-08-10 13:10:00,
2013-08-10 08:14:00,83.9,73.9,29.96,SSW,207,0.0,5.0,72,0.00,,---,0.00,248.00,VWS V14.00,2013-08-10 13:14:00,
2013-08-10 08:18:00,84.4,74.0,29.96,South,190,0.0,5.0,71,0.00,,---,0.00,292.00,VWS V14.00,2013-08-10 13:18:00,
2013-08-10 08:22:00,84.6,73.7,29.96,South,191,0.0,5.0,70,0.00,,---,0.00,304.00,VWS V14.00,2013-08-10 13:22:00,
2013-08-10 08:26:00,84.9,74.0,29.96,SSW,207,0.0,5.0,70,0.00,,---,0.00,318.00,VWS V14.00,2013-08-10 13:26:00,
2013-08-10 08:30:00,84.9,74.0,29.97,SSW,194,1.0,5.0,70,0.00,,---,0.00,353.00,VWS V14.00,2013-08-10 13:30:00,
2013-08-10 08:34:00,85.2,73.4,29.97,WSW,240,0.0,4.0,68,0.00,,---,0.00,364.00,VWS V14.00,2013-08-10 13:34:00,
2013-08-10 08:38:00,85.4,74.1,29.97,South,178,0.0,4.0,69,0.00,,---,0.00,380.00,VWS V14.00,2013-08-10 13:38:00,
2013-08-10 08:42:00,85.7,73.5,29.97,South,174,0.0,4.0,67,0.00,,---,0.00,394.00,VWS V14.00,2013-08-10 13:42:00,
2013-08-10 08:46:00,86.1,73.4,29.97,South,171,3.0,4.0,66,0.00,,---,0.00,410.00,VWS V14.00,2013-08-10 13:46:00,
2013-08-10 08:50:00,86.3,73.6,29.97,SSW,192,0.0,4.0,66,0.00,,---,0.00,420.00,VWS V14.00,2013-08-10 13:50:00,
2013-08-10 08:54:00,86.6,73.4,29.97,South,188,4.0,4.0,65,0.00,,---,0.00,436.00,VWS V14.00,2013-08-10 13:54:00,
2013-08-10 08:58:00,86.8,74.5,29.97,SSW,194,1.0,4.0,67,0.00,,---,0.00,448.00,VWS V14.00,2013-08-10 13:58:00,
2013-08-10 09:00:00,86.9,74.6,29.97,SSW,194,0.0,4.0,67,0.00,,---,0.00,455.00,VWS V14.00,2013-08-10 14:00:00,
2013-08-10 09:02:00,87.3,75.0,29.97,SSW,196,0.0,0.0,67,0.00,,---,0.00,462.00,VWS V14.00,2013-08-10 14:02:00,
2013-08-10 09:06:00,87.7,74.0,29.97,WNW,293,0.0,3.0,64,0.00,,---,0.00,475.00,VWS V14.00,2013-08-10 14:06:00,
2013-08-10 09:10:00,87.8,72.7,29.97,SSW,209,1.0,3.0,61,0.00,,---,0.00,487.00,VWS V14.00,2013-08-10 14:10:00,
2013-08-10 09:14:00,87.5,73.4,29.97,WSW,238,6.0,6.0,63,0.00,,---,0.00,499.00,VWS V14.00,2013-08-10 14:14:00,
2013-08-10 09:18:00,87.6,72.5,29.97,WNW,292,2.0,6.0,61,0.00,,---,0.00,512.00,VWS V14.00,2013-08-10 14:18:00,
2013-08-10 09:23:00,87.7,72.6,29.97,SSW,196,0.0,6.0,61,0.00,,---,0.00,524.00,VWS V14.00,2013-08-10 14:23:00,
2013-08-10 09:27:00,88.3,74.1,29.97,NW,315,3.0,6.0,63,0.00,,---,0.00,536.00,VWS V14.00,2013-08-10 14:27:00,
2013-08-10 09:30:00,88.6,73.4,29.97,West,260,0.0,6.0,61,0.00,,---,0.00,563.00,VWS V14.00,2013-08-10 14:30:00,
2013-08-10 09:31:00,88.6,72.9,29.97,WSW,246,3.0,3.0,60,0.00,,---,0.00,571.00,VWS V14.00,2013-08-10 14:31:00,
2013-08-10 09:35:00,88.9,73.2,29.97,NW,309,1.0,3.0,60,0.00,,---,0.00,652.00,VWS V14.00,2013-08-10 14:35:00,
2013-08-10 09:39:00,89.3,74.1,29.97,West,277,0.0,4.0,61,0.00,,---,0.00,703.00,VWS V14.00,2013-08-10 14:39:00,
2013-08-10 09:43:00,89.3,73.1,29.97,WNW,285,3.0,6.0,59,0.00,,---,0.00,680.00,VWS V14.00,2013-08-10 14:43:00,
2013-08-10 09:47:00,89.1,73.9,29.98,NW,313,0.0,6.0,61,0.00,,---,0.00,673.00,VWS V14.00,2013-08-10 14:47:00,
2013-08-10 09:51:00,89.7,75.0,29.98,NNW,335,6.0,6.0,62,0.00,,---,0.00,687.00,VWS V14.00,2013-08-10 14:51:00,
2013-08-10 09:55:00,89.9,72.6,29.98,SW,224,1.0,6.0,57,0.00,,---,0.00,636.00,VWS V14.00,2013-08-10 14:55:00,
2013-08-10 09:59:00,89.4,72.2,29.98,NNW,342,0.0,6.0,57,0.00,,---,0.00,520.00,VWS V14.00,2013-08-10 14:59:00,
2013-08-10 10:00:00,89.2,72.0,29.98,WNW,288,2.0,6.0,57,0.00,,---,0.00,520.00,VWS V14.00,2013-08-10 15:00:00,
2013-08-10 10:03:00,88.8,72.1,29.98,North,360,2.0,4.0,58,0.00,,---,0.00,642.00,VWS V14.00,2013-08-10 15:03:00,
2013-08-10 10:07:00,89.0,73.3,29.98,North,5,6.0,6.0,60,0.00,,---,0.00,656.00,VWS V14.00,2013-08-10 15:07:00,
2013-08-10 10:11:00,88.7,72.0,29.98,West,276,6.0,6.0,58,0.00,,---,0.00,652.00,VWS V14.00,2013-08-10 15:11:00,
2013-08-10 10:15:00,88.7,73.0,29.99,NNE,23,3.0,6.0,60,0.00,,---,0.00,671.00,VWS V14.00,2013-08-10 15:15:00,
2013-08-10 10:19:00,89.3,73.1,29.99,NW,317,0.0,6.0,59,0.00,,---,0.00,680.00,VWS V14.00,2013-08-10 15:19:00,
2013-08-10 10:23:00,89.1,70.8,29.99,WSW,254,0.0,6.0,55,0.00,,---,0.00,694.00,VWS V14.00,2013-08-10 15:23:00,
2013-08-10 10:27:00,89.7,73.5,29.99,North,9,4.0,6.0,59,0.00,,---,0.00,703.00,VWS V14.00,2013-08-10 15:27:00,
2013-08-10 10:30:00,89.6,73.9,29.99,NNW,340,0.0,6.0,60,0.00,,---,0.00,710.00,VWS V14.00,2013-08-10 15:30:00,
2013-08-10 10:31:00,89.5,73.8,29.99,NNE,13,4.0,6.0,60,0.00,,---,0.00,715.00,VWS V14.00,2013-08-10 15:31:00,
2013-08-10 10:35:00,89.3,73.6,29.99,NNW,348,3.0,6.0,60,0.00,,---,0.00,726.00,VWS V14.00,2013-08-10 15:35:00,
2013-08-10 10:39:00,89.0,72.8,29.99,NNW,347,5.0,6.0,59,0.00,,---,0.00,733.00,VWS V14.00,2013-08-10 15:39:00,
2013-08-10 10:43:00,89.1,73.4,29.99,North,11,4.0,6.0,60,0.00,,---,0.00,738.00,VWS V14.00,2013-08-10 15:43:00,
2013-08-10 10:48:00,89.6,73.4,29.99,North,351,4.0,6.0,59,0.00,,---,0.00,747.00,VWS V14.00,2013-08-10 15:48:00,
2013-08-10 10:52:00,89.4,72.7,29.99,North,355,6.0,6.0,58,0.00,,---,0.00,758.00,VWS V14.00,2013-08-10 15:52:00,
2013-08-10 10:56:00,89.6,73.4,29.99,North,10,2.0,6.0,59,0.00,,---,0.00,768.00,VWS V14.00,2013-08-10 15:56:00,
2013-08-10 11:00:00,90.0,73.8,29.99,North,355,3.0,6.0,59,0.00,,---,0.00,775.00,VWS V14.00,2013-08-10 16:00:00,
2013-08-10 11:04:00,90.4,72.6,29.99,North,10,2.0,3.0,56,0.00,,---,0.00,782.00,VWS V14.00,2013-08-10 16:04:00,
2013-08-10 11:08:00,90.0,72.2,29.99,North,351,3.0,6.0,56,0.00,,---,0.00,784.00,VWS V14.00,2013-08-10 16:08:00,
2013-08-10 11:12:00,90.2,73.9,29.99,North,10,3.0,6.0,59,0.00,,---,0.00,793.00,VWS V14.00,2013-08-10 16:12:00,
2013-08-10 11:16:00,90.7,72.9,29.99,NNW,344,2.0,7.0,56,0.00,,---,0.00,802.00,VWS V14.00,2013-08-10 16:16:00,
2013-08-10 11:20:00,90.4,73.1,29.99,NNW,342,5.0,7.0,57,0.00,,---,0.00,809.00,VWS V14.00,2013-08-10 16:20:00,
2013-08-10 11:24:00,89.8,73.6,29.99,NW,323,2.0,7.0,59,0.00,,---,0.00,814.00,VWS V14.00,2013-08-10 16:24:00,
2013-08-10 11:28:00,90.9,73.6,29.99,NNE,20,1.0,7.0,57,0.00,,---,0.00,821.00,VWS V14.00,2013-08-10 16:28:00,
2013-08-10 11:30:00,91.2,73.3,29.99,NNW,345,4.0,7.0,56,0.00,,---,0.00,824.00,VWS V14.00,2013-08-10 16:30:00,
2013-08-10 11:32:00,91.3,72.9,29.99,North,5,2.0,4.0,55,0.00,,---,0.00,826.00,VWS V14.00,2013-08-10 16:32:00,
2013-08-10 11:36:00,91.8,72.8,29.99,North,9,3.0,4.0,54,0.00,,---,0.00,835.00,VWS V14.00,2013-08-10 16:36:00,
2013-08-10 11:40:00,92.1,74.2,29.99,North,10,3.0,4.0,56,0.00,,---,0.00,837.00,VWS V14.00,2013-08-10 16:40:00,
2013-08-10 11:44:00,92.3,72.1,29.99,NNW,345,0.0,6.0,52,0.00,,---,0.00,846.00,VWS V14.00,2013-08-10 16:44:00,
2013-08-10 11:48:00,91.8,73.3,29.99,NNW,345,0.0,6.0,55,0.00,,---,0.00,849.00,VWS V14.00,2013-08-10 16:48:00,
2013-08-10 11:52:00,92.6,73.5,29.99,NNE,28,0.0,6.0,54,0.00,,---,0.00,853.00,VWS V14.00,2013-08-10 16:52:00,
2013-08-10 11:56:00,93.0,72.8,29.99,NNE,19,0.0,6.0,52,0.00,,---,0.00,858.00,VWS V14.00,2013-08-10 16:56:00,
2013-08-10 12:00:00,93.2,73.0,29.98,North,360,3.0,6.0,52,0.00,,---,0.00,863.00,VWS V14.00,2013-08-10 17:00:00,
2013-08-10 12:04:00,93.4,71.4,29.98,WSW,244,2.0,3.0,49,0.00,,---,0.00,867.00,VWS V14.00,2013-08-10 17:04:00,
2013-08-10 12:08:00,93.4,73.7,29.98,NNW,342,2.0,3.0,53,0.00,,---,0.00,870.00,VWS V14.00,2013-08-10 17:08:00,
2013-08-10 12:12:00,93.3,71.3,29.98,NW,326,1.0,5.0,49,0.00,,---,0.00,868.00,VWS V14.00,2013-08-10 17:12:00,
2013-08-10 12:16:00,94.1,70.8,29.98,NW,306,0.0,5.0,47,0.00,,---,0.00,870.00,VWS V14.00,2013-08-10 17:16:00,
2013-08-10 12:20:00,94.0,70.7,29.98,North,360,3.0,6.0,47,0.00,,---,0.00,872.00,VWS V14.00,2013-08-10 17:20:00,
2013-08-10 12:24:00,94.3,71.6,29.98,North,5,1.0,6.0,48,0.00,,---,0.00,877.00,VWS V14.00,2013-08-10 17:24:00,
2013-08-10 12:28:00,94.5,72.4,29.98,North,11,2.0,6.0,49,0.00,,---,0.00,877.00,VWS V14.00,2013-08-10 17:28:00,
2013-08-10 12:30:00,94.6,71.3,29.97,NNE,13,2.0,6.0,47,0.00,,---,0.00,877.00,VWS V14.00,2013-08-10 17:30:00,
2013-08-10 12:32:00,94.7,71.3,29.97,North,5,3.0,7.0,47,0.00,,---,0.00,879.00,VWS V14.00,2013-08-10 17:32:00,
2013-08-10 12:36:00,94.4,73.5,29.97,NNW,333,4.0,7.0,51,0.00,,---,0.00,881.00,VWS V14.00,2013-08-10 17:36:00,
2013-08-10 12:41:00,94.5,71.8,29.97,North,350,4.0,7.0,48,0.00,,---,0.00,882.00,VWS V14.00,2013-08-10 17:41:00,
2013-08-10 12:45:00,94.3,72.8,29.97,North,350,4.0,7.0,50,0.00,,---,0.00,882.00,VWS V14.00,2013-08-10 17:45:00,
2013-08-10 12:49:00,94.2,73.3,29.97,WNW,301,4.0,7.0,51,0.00,,---,0.00,882.00,VWS V14.00,2013-08-10 17:49:00,
2013-08-10 12:53:00,94.9,71.5,29.97,North,5,1.0,7.0,47,0.00,,---,0.00,881.00,VWS V14.00,2013-08-10 17:53:00,
2013-08-10 12:57:00,94.7,73.8,29.97,NNW,340,4.0,7.0,51,0.00,,---,0.00,886.00,VWS V14.00,2013-08-10 17:57:00,
2013-08-10 13:00:00,94.7,73.2,29.97,NNW,342,0.0,7.0,50,0.00,,---,0.00,884.00,VWS V14.00,2013-08-10 18:00:00,
2013-08-10 13:01:00,95.1,73.6,29.97,NE,38,1.0,2.0,50,0.00,,---,0.00,882.00,VWS V14.00,2013-08-10 18:01:00,
2013-08-10 13:05:00,95.2,71.8,29.97,North,355,0.0,2.0,47,0.00,,---,0.00,884.00,VWS V14.00,2013-08-10 18:05:00,
2013-08-10 13:09:00,96.2,73.3,29.97,NNW,335,3.0,3.0,48,0.00,,---,0.00,884.00,VWS V14.00,2013-08-10 18:09:00,
2013-08-10 13:13:00,95.6,72.8,29.97,North,349,4.0,4.0,48,0.00,,---,0.00,884.00,VWS V14.00,2013-08-10 18:13:00,
2013-08-10 13:17:00,95.4,71.3,29.96,North,350,4.0,5.0,46,0.00,,---,0.00,882.00,VWS V14.00,2013-08-10 18:17:00,
2013-08-10 13:21:00,96.3,72.2,29.96,NNE,12,2.0,5.0,46,0.00,,---,0.00,879.00,VWS V14.00,2013-08-10 18:21:00,
2013-08-10 13:25:00,97.0,69.4,29.96,North,5,3.0,5.0,41,0.00,,---,0.00,879.00,VWS V14.00,2013-08-10 18:25:00,
2013-08-10 13:29:00,96.7,71.2,29.95,NNW,344,3.0,5.0,44,0.00,,---,0.00,877.00,VWS V14.00,2013-08-10 18:29:00,
2013-08-10 13:30:00,96.7,71.2,29.95,NW,325,6.0,6.0,44,0.00,,---,0.00,877.00,VWS V14.00,2013-08-10 18:30:00,
2013-08-10 13:33:00,96.4,70.9,29.95,North,360,3.0,9.0,44,0.00,,---,0.00,872.00,VWS V14.00,2013-08-10 18:33:00,
2013-08-10 13:37:00,96.4,72.3,29.95,NW,325,4.0,9.0,46,0.00,,---,0.00,870.00,VWS V14.00,2013-08-10 18:37:00,
2013-08-10 13:41:00,96.7,71.2,29.95,North,360,1.0,9.0,44,0.00,,---,0.00,865.00,VWS V14.00,2013-08-10 18:41:00,
2013-08-10 13:45:00,96.9,72.1,29.94,North,11,3.0,9.0,45,0.00,,---,0.00,865.00,VWS V14.00,2013-08-10 18:45:00,
2013-08-10 13:49:00,97.3,71.8,29.94,NNW,344,4.0,9.0,44,0.00,,---,0.00,858.00,VWS V14.00,2013-08-10 18:49:00,
2013-08-10 13:53:00,97.4,71.8,29.94,North,360,3.0,9.0,44,0.00,,---,0.00,856.00,VWS V14.00,2013-08-10 18:53:00,
2013-08-10 13:57:00,97.3,69.7,29.94,North,355,0.0,9.0,41,0.00,,---,0.00,854.00,VWS V14.00,2013-08-10 18:57:00,
2013-08-10 14:00:00,97.4,70.5,29.94,NNW,346,3.0,9.0,42,0.00,,---,0.00,853.00,VWS V14.00,2013-08-10 19:00:00,
2013-08-10 14:01:00,97.5,70.6,29.94,North,360,4.0,5.0,42,0.00,,---,0.00,849.00,VWS V14.00,2013-08-10 19:01:00,
2013-08-10 14:05:00,97.6,71.3,29.94,North,355,3.0,7.0,43,0.00,,---,0.00,840.00,VWS V14.00,2013-08-10 19:05:00,
2013-08-10 14:10:00,97.5,69.9,29.94,NNW,346,7.0,7.0,41,0.00,,---,0.00,840.00,VWS V14.00,2013-08-10 19:10:00,
2013-08-10 14:14:00,96.9,70.7,29.94,NNW,340,5.0,7.0,43,0.00,,---,0.00,833.00,VWS V14.00,2013-08-10 19:14:00,
2013-08-10 14:18:00,97.0,71.5,29.93,NNE,19,1.0,7.0,44,0.00,,---,0.00,828.00,VWS V14.00,2013-08-10 19:18:00,
2013-08-10 14:22:00,97.5,71.3,29.93,NNW,348,3.0,7.0,43,0.00,,---,0.00,821.00,VWS V14.00,2013-08-10 19:22:00,
2013-08-10 14:26:00,97.7,71.4,29.93,NNE,26,0.0,7.0,43,0.00,,---,0.00,816.00,VWS V14.00,2013-08-10 19:26:00,
2013-08-10 14:30:00,98.9,71.8,29.92,NNE,14,3.0,7.0,42,0.00,,---,0.00,810.00,VWS V14.00,2013-08-10 19:30:00,
2013-08-10 14:34:00,98.6,70.8,29.92,NNW,331,2.0,6.0,41,0.00,,---,0.00,802.00,VWS V14.00,2013-08-10 19:34:00,
2013-08-10 14:38:00,98.3,72.7,29.92,NNW,339,2.0,7.0,44,0.00,,---,0.00,795.00,VWS V14.00,2013-08-10 19:38:00,
2013-08-10 14:42:00,99.0,70.5,29.92,NNE,15,3.0,7.0,40,0.00,,---,0.00,791.00,VWS V14.00,2013-08-10 19:42:00,
2013-08-10 14:46:00,99.6,69.5,29.91,North,360,4.0,7.0,38,0.00,,---,0.00,784.00,VWS V14.00,2013-08-10 19:46:00,
2013-08-10 14:50:00,99.5,68.6,29.91,North,9,4.0,7.0,37,0.00,,---,0.00,773.00,VWS V14.00,2013-08-10 19:50:00,
2013-08-10 14:54:00,99.5,69.4,29.91,North,5,0.0,7.0,38,0.00,,---,0.00,765.00,VWS V14.00,2013-08-10 19:54:00,
2013-08-10 14:58:00,100.0,70.6,29.91,NNW,346,1.0,7.0,39,0.00,,---,0.00,756.00,VWS V14.00,2013-08-10 19:58:00,
2013-08-10 15:00:00,99.8,69.7,29.91,NNW,348,3.0,7.0,38,0.00,,---,0.00,752.00,VWS V14.00,2013-08-10 20:00:00,
2013-08-10 15:02:00,99.6,70.3,29.91,North,360,3.0,3.0,39,0.00,,---,0.00,749.00,VWS V14.00,2013-08-10 20:02:00,
2013-08-10 15:06:00,99.0,71.9,29.91,North,350,4.0,5.0,42,0.00,,---,0.00,744.00,VWS V14.00,2013-08-10 20:06:00,
2013-08-10 15:10:00,99.2,69.9,29.91,NNW,344,6.0,6.0,39,0.00,,---,0.00,731.00,VWS V14.00,2013-08-10 20:10:00,
2013-08-10 15:14:00,98.4,69.2,29.89,North,5,3.0,6.0,39,0.00,,---,0.00,721.00,VWS V14.00,2013-08-10 20:14:00,
2013-08-10 15:18:00,98.9,70.4,29.89,NW,323,4.0,6.0,40,0.00,,---,0.00,710.00,VWS V14.00,2013-08-10 20:18:00,
2013-08-10 15:22:00,98.6,70.8,29.89,North,355,4.0,6.0,41,0.00,,---,0.00,705.00,VWS V14.00,2013-08-10 20:22:00,
2013-08-10 15:26:00,98.9,72.5,29.89,North,355,1.0,6.0,43,0.00,,---,0.00,691.00,VWS V14.00,2013-08-10 20:26:00,
2013-08-10 15:30:00,99.4,70.1,29.89,NNW,346,4.0,6.0,39,0.00,,---,0.00,684.00,VWS V14.00,2013-08-10 20:30:00,
2013-08-10 15:34:00,99.4,70.8,29.89,North,355,2.0,4.0,40,0.00,,---,0.00,670.00,VWS V14.00,2013-08-10 20:34:00,
2013-08-10 15:38:00,99.4,70.8,29.89,North,349,2.0,5.0,40,0.00,,---,0.00,661.00,VWS V14.00,2013-08-10 20:38:00,
2013-08-10 15:42:00,99.5,70.9,29.89,North,9,2.0,5.0,40,0.00,,---,0.00,649.00,VWS V14.00,2013-08-10 20:42:00,
2013-08-10 15:46:00,99.5,71.6,29.88,North,9,4.0,5.0,41,0.00,,---,0.00,635.00,VWS V14.00,2013-08-10 20:46:00,
2013-08-10 15:50:00,99.5,70.9,29.88,North,360,3.0,5.0,40,0.00,,---,0.00,626.00,VWS V14.00,2013-08-10 20:50:00,
2013-08-10 15:54:00,99.5,70.9,29.88,North,5,3.0,5.0,40,0.00,,---,0.00,617.00,VWS V14.00,2013-08-10 20:54:00,
2013-08-10 15:59:00,99.9,70.5,29.88,North,5,0.0,5.0,39,0.00,,---,0.00,601.00,VWS V14.00,2013-08-10 20:59:00,
2013-08-10 16:00:00,100.2,71.5,29.88,North,5,3.0,5.0,40,0.00,,---,0.00,596.00,VWS V14.00,2013-08-10 21:00:00,
2013-08-10 16:03:00,100.2,70.0,29.88,North,5,2.0,3.0,38,0.00,,---,0.00,592.00,VWS V14.00,2013-08-10 21:03:00,
2013-08-10 16:07:00,99.6,71.7,29.88,NNW,343,0.0,4.0,41,0.00,,---,0.00,580.00,VWS V14.00,2013-08-10 21:07:00,
2013-08-10 16:11:00,99.4,71.6,29.88,NW,319,0.0,4.0,41,0.00,,---,0.00,568.00,VWS V14.00,2013-08-10 21:11:00,
2013-08-10 16:15:00,99.3,70.7,29.88,NNW,329,1.0,4.0,40,0.00,,---,0.00,552.00,VWS V14.00,2013-08-10 21:15:00,
2013-08-10 16:19:00,100.0,72.1,29.88,NNW,329,0.0,4.0,41,0.00,,---,0.00,540.00,VWS V14.00,2013-08-10 21:19:00,
2013-08-10 16:23:00,99.6,71.0,29.88,NNW,342,0.0,4.0,40,0.00,,---,0.00,526.00,VWS V14.00,2013-08-10 21:23:00,
2013-08-10 16:27:00,99.6,71.0,29.88,NNW,346,0.0,4.0,40,0.00,,---,0.00,519.00,VWS V14.00,2013-08-10 21:27:00,
2013-08-10 16:30:00,99.4,70.8,29.88,NNW,346,5.0,5.0,40,0.00,,---,0.00,504.00,VWS V14.00,2013-08-10 21:30:00,
2013-08-10 16:31:00,99.3,72.2,29.88,NNW,340,1.0,5.0,42,0.00,,---,0.00,501.00,VWS V14.00,2013-08-10 21:31:00,
2013-08-10 16:35:00,99.6,71.7,29.88,NNW,348,2.0,5.0,41,0.00,,---,0.00,485.00,VWS V14.00,2013-08-10 21:35:00,
2013-08-10 16:39:00,99.6,72.4,29.88,NNW,332,1.0,5.0,42,0.00,,---,0.00,475.00,VWS V14.00,2013-08-10 21:39:00,
2013-08-10 16:43:00,99.6,71.7,29.88,North,5,1.0,5.0,41,0.00,,---,0.00,459.00,VWS V14.00,2013-08-10 21:43:00,
2013-08-10 16:47:00,99.4,72.3,29.88,NW,320,3.0,5.0,42,0.00,,---,0.00,452.00,VWS V14.00,2013-08-10 21:47:00,
2013-08-10 16:51:00,99.3,71.5,29.88,North,355,0.0,5.0,41,0.00,,---,0.00,445.00,VWS V14.00,2013-08-10 21:51:00,
2013-08-10 16:55:00,99.5,71.6,29.88,NNW,340,4.0,5.0,41,0.00,,---,0.00,429.00,VWS V14.00,2013-08-10 21:55:00,
2013-08-10 16:59:00,99.3,72.2,29.88,NNW,336,4.0,5.0,42,0.00,,---,0.00,410.00,VWS V14.00,2013-08-10 21:59:00,
2013-08-10 17:00:00,99.1,72.7,29.88,NNW,346,5.0,5.0,43,0.00,,---,0.00,406.00,VWS V14.00,2013-08-10 22:00:00,
2013-08-10 17:03:00,98.5,72.2,29.88,NNW,336,0.0,5.0,43,0.00,,---,0.00,397.00,VWS V14.00,2013-08-10 22:03:00,
2013-08-10 17:07:00,99.1,72.0,29.88,North,5,2.0,5.0,42,0.00,,---,0.00,381.00,VWS V14.00,2013-08-10 22:07:00,
2013-08-10 17:11:00,99.2,72.8,29.88,NNE,26,3.0,5.0,43,0.00,,---,0.00,367.00,VWS V14.00,2013-08-10 22:11:00,
2013-08-10 17:15:00,98.9,73.9,29.88,NNW,339,2.0,5.0,45,0.00,,---,0.00,352.00,VWS V14.00,2013-08-10 22:15:00,
2013-08-10 17:19:00,99.0,74.6,29.88,North,360,2.0,5.0,46,0.00,,---,0.00,336.00,VWS V14.00,2013-08-10 22:19:00,
2013-08-10 17:23:00,98.9,72.5,29.88,NNW,341,0.0,5.0,43,0.00,,---,0.00,323.00,VWS V14.00,2013-08-10 22:23:00,
2013-08-10 17:27:00,98.7,73.7,29.88,North,360,2.0,5.0,45,0.00,,---,0.00,311.00,VWS V14.00,2013-08-10 22:27:00,
2013-08-10 17:30:00,98.8,74.4,29.88,NNW,341,3.0,5.0,46,0.00,,---,0.00,302.00,VWS V14.00,2013-08-10 22:30:00,
2013-08-10 17:31:00,98.6,73.6,29.88,North,360,0.0,6.0,45,0.00,,---,0.00,295.00,VWS V14.00,2013-08-10 22:31:00,
2013-08-10 17:35:00,98.6,72.9,29.88,North,355,3.0,6.0,44,0.00,,---,0.00,287.00,VWS V14.00,2013-08-10 22:35:00,
2013-08-10 17:39:00,98.2,73.2,29.88,NNW,331,2.0,6.0,45,0.00,,---,0.00,272.00,VWS V14.00,2013-08-10 22:39:00,
2013-08-10 17:43:00,98.1,73.1,29.88,NNW,342,2.0,6.0,45,0.00,,---,0.00,255.00,VWS V14.00,2013-08-10 22:43:00,
2013-08-10 17:47:00,98.2,74.5,29.87,North,9,2.0,6.0,47,0.00,,---,0.00,244.00,VWS V14.00,2013-08-10 22:47:00,
2013-08-10 17:52:00,97.7,75.3,29.87,NNW,332,2.0,7.0,49,0.00,,---,0.00,232.00,VWS V14.00,2013-08-10 22:52:00,
2013-08-10 17:56:00,97.4,74.4,29.87,NNW,335,1.0,7.0,48,0.00,,---,0.00,216.00,VWS V14.00,2013-08-10 22:56:00,
2013-08-10 18:00:00,97.2,74.9,29.88,North,5,3.0,7.0,49,0.00,,---,0.00,204.00,VWS V14.00,2013-08-10 23:00:00,
2013-08-10 18:04:00,97.0,74.7,29.88,NNW,344,0.0,4.0,49,0.00,,---,0.00,195.00,VWS V14.00,2013-08-10 23:04:00,
2013-08-10 18:08:00,96.9,74.6,29.88,NNW,346,2.0,4.0,49,0.00,,---,0.00,179.00,VWS V14.00,2013-08-10 23:08:00,
2013-08-10 18:12:00,96.4,75.3,29.88,NNW,329,0.0,4.0,51,0.00,,---,0.00,167.00,VWS V14.00,2013-08-10 23:12:00,
2013-08-10 18:16:00,96.0,75.6,29.88,North,349,0.0,4.0,52,0.00,,---,0.00,158.00,VWS V14.00,2013-08-10 23:16:00,
2013-08-10 18:20:00,96.1,75.6,29.88,NNW,344,4.0,4.0,52,0.00,,---,0.00,137.00,VWS V14.00,2013-08-10 23:20:00,
2013-08-10 18:24:00,95.8,74.8,29.88,North,5,6.0,6.0,51,0.00,,---,0.00,130.00,VWS V14.00,2013-08-10 23:24:00,
2013-08-10 18:28:00,95.3,74.9,29.88,NNW,348,1.0,6.0,52,0.00,,---,0.00,118.00,VWS V14.00,2013-08-10 23:28:00,
2013-08-10 18:30:00,95.0,75.2,29.88,NNW,342,2.0,6.0,53,0.00,,---,0.00,113.00,VWS V14.00,2013-08-10 23:30:00,
2013-08-10 18:32:00,95.0,75.2,29.88,NNW,348,2.0,4.0,53,0.00,,---,0.00,93.00,VWS V14.00,2013-08-10 23:32:00,
2013-08-10 18:36:00,94.8,75.6,29.88,North,355,4.0,4.0,54,0.00,,---,0.00,72.00,VWS V14.00,2013-08-10 23:36:00,
2013-08-10 18:40:00,94.5,75.8,29.88,North,360,2.0,4.0,55,0.00,,---,0.00,76.00,VWS V14.00,2013-08-10 23:40:00,
2013-08-10 18:44:00,94.2,76.1,29.88,NNW,331,3.0,4.0,56,0.00,,---,0.00,58.00,VWS V14.00,2013-08-10 23:44:00,
2013-08-10 18:48:00,93.9,76.4,29.88,NNW,344,0.0,4.0,57,0.00,,---,0.00,54.00,VWS V14.00,2013-08-10 23:48:00,
2013-08-10 18:52:00,93.6,75.0,29.88,North,355,0.0,4.0,55,0.00,,---,0.00,49.00,VWS V14.00,2013-08-10 23:52:00,
2013-08-10 18:56:00,93.4,75.4,29.88,NNW,342,3.0,4.0,56,0.00,,---,0.00,44.00,VWS V14.00,2013-08-10 23:56:00,
2013-08-10 19:00:00,93.3,75.3,29.89,NW,305,0.0,4.0,56,0.00,,---,0.00,40.00,VWS V14.00,2013-08-11 00:00:00,
2013-08-10 19:04:00,93.2,75.2,29.89,NNW,333,3.0,3.0,56,0.00,,---,0.00,33.00,VWS V14.00,2013-08-11 00:04:00,
2013-08-10 19:08:00,93.0,76.1,29.89,NNW,331,0.0,5.0,58,0.00,,---,0.00,28.00,VWS V14.00,2013-08-11 00:08:00,
2013-08-10 19:12:00,92.8,75.3,29.89,NNW,343,0.0,5.0,57,0.00,,---,0.00,25.00,VWS V14.00,2013-08-11 00:12:00,
2013-08-10 19:16:00,92.6,75.7,29.90,NNW,343,0.0,5.0,58,0.00,,---,0.00,19.00,VWS V14.00,2013-08-11 00:16:00,
2013-08-10 19:20:00,92.3,75.9,29.90,NNW,343,0.0,5.0,59,0.00,,---,0.00,16.00,VWS V14.00,2013-08-11 00:20:00,
2013-08-10 19:24:00,92.1,76.2,29.90,NNW,342,0.0,5.0,60,0.00,,---,0.00,12.00,VWS V14.00,2013-08-11 00:24:00,
2013-08-10 19:28:00,91.8,75.9,29.90,NNW,342,2.0,5.0,60,0.00,,---,0.00,9.00,VWS V14.00,2013-08-11 00:28:00,
2013-08-10 19:30:00,91.8,75.9,29.90,NNW,342,1.0,5.0,60,0.00,,---,0.00,9.00,VWS V14.00,2013-08-11 00:30:00,
2013-08-10 19:32:00,91.6,76.2,29.90,NNW,336,0.0,2.0,61,0.00,,---,0.00,5.00,VWS V14.00,2013-08-11 00:32:00,
2013-08-10 19:37:00,91.3,75.5,29.90,NNW,340,0.0,2.0,60,0.00,,---,0.00,0.00,VWS V14.00,2013-08-11 00:37:00,
2013-08-10 19:41:00,91.0,75.7,29.90,NNW,340,0.0,2.0,61,0.00,,---,0.00,0.00,VWS V14.00,2013-08-11 00:41:00,
2013-08-10 19:45:00,91.0,76.2,29.91,NNW,340,0.0,2.0,62,0.00,,---,0.00,0.00,VWS V14.00,2013-08-11 00:45:00,
2013-08-10 19:49:00,91.0,76.7,29.91,ESE,109,5.0,5.0,63,0.00,,---,0.00,0.00,VWS V14.00,2013-08-11 00:49:00,
2013-08-10 19:53:00,90.5,72.7,29.91,ESE,120,10.0,13.0,56,0.00,,---,0.00,0.00,VWS V14.00,2013-08-11 00:53:00,
2013-08-10 19:57:00,89.7,70.9,29.91,ESE,107,10.0,13.0,54,0.00,,---,0.00,0.00,VWS V14.00,2013-08-11 00:57:00,
2013-08-10 20:00:00,89.1,71.4,29.93,ESE,121,7.0,13.0,56,0.00,,---,0.00,0.00,VWS V14.00,2013-08-11 01:00:00,
2013-08-10 20:01:00,88.9,70.7,29.93,SE,127,5.0,6.0,55,0.00,,---,0.00,0.00,VWS V14.00,2013-08-11 01:01:00,
2013-08-10 20:05:00,88.1,71.0,29.93,SE,130,6.0,8.0,57,0.00,,---,0.00,0.00,VWS V14.00,2013-08-11 01:05:00,
2013-08-10 20:09:00,87.2,70.6,29.93,SE,130,5.0,9.0,58,0.00,,---,0.00,0.00,VWS V14.00,2013-08-11 01:09:00,
2013-08-10 20:13:00,86.4,70.4,29.93,SE,132,5.0,10.0,59,0.00,,---,0.00,0.00,VWS V14.00,2013-08-11 01:13:00,
2013-08-10 20:17:00,85.9,70.4,29.93,SE,128,3.0,10.0,60,0.00,,---,0.00,0.00,VWS V14.00,2013-08-11 01:17:00,
2013-08-10 20:21:00,85.6,70.6,29.93,SE,137,7.0,11.0,61,0.00,,---,0.00,0.00,VWS V14.00,2013-08-11 01:21:00,
2013-08-10 20:25:00,85.3,71.3,29.93,SSE,148,2.0,11.0,63,0.00,,---,0.00,0.00,VWS V14.00,2013-08-11 01:25:00,
2013-08-10 20:29:00,85.1,70.6,29.94,SSE,157,4.0,11.0,62,0.00,,---,0.00,0.00,VWS V14.00,2013-08-11 01:29:00,
2013-08-10 20:30:00,85.1,70.6,29.94,SSE,163,4.0,11.0,62,0.00,,---,0.00,0.00,VWS V14.00,2013-08-11 01:30:00,
2013-08-10 20:33:00,85.1,71.1,29.94,South,171,4.0,4.0,63,0.00,,---,0.00,0.00,VWS V14.00,2013-08-11 01:33:00,
2013-08-10 20:37:00,85.0,71.9,29.94,SSE,148,3.0,4.0,65,0.00,,---,0.00,0.00,VWS V14.00,2013-08-11 01:37:00,
2013-08-10 20:41:00,84.9,71.4,29.94,SSE,154,4.0,4.0,64,0.00,,---,0.00,0.00,VWS V14.00,2013-08-11 01:41:00,
2013-08-10 20:45:00,84.9,71.8,29.94,SSE,162,3.0,5.0,65,0.00,,---,0.00,0.00,VWS V14.00,2013-08-11 01:45:00,
2013-08-10 20:49:00,84.6,70.6,29.94,SSE,157,2.0,5.0,63,0.00,,---,0.00,0.00,VWS V14.00,2013-08-11 01:49:00,
2013-08-10 20:53:00,84.4,71.4,29.94,SSE,167,5.0,5.0,65,0.00,,---,0.00,0.00,VWS V14.00,2013-08-11 01:53:00,
2013-08-10 20:57:00,84.3,71.7,29.94,SSE,166,2.0,5.0,66,0.00,,---,0.00,0.00,VWS V14.00,2013-08-11 01:57:00,
2013-08-10 21:00:00,84.2,71.2,29.95,SSE,162,0.0,5.0,65,0.00,,---,0.00,0.00,VWS V14.00,2013-08-11 02:00:00,
2013-08-10 21:01:00,84.0,70.5,29.95,SSE,166,0.0,0.0,64,0.00,,---,0.00,0.00,VWS V14.00,2013-08-11 02:01:00,
2013-08-10 21:05:00,83.8,71.2,29.95,South,187,0.0,1.0,66,0.00,,---,0.00,0.00,VWS V14.00,2013-08-11 02:05:00,
2013-08-10 21:09:00,83.4,71.3,29.95,South,187,0.0,1.0,67,0.00,,---,0.00,0.00,VWS V14.00,2013-08-11 02:09:00,
2013-08-10 21:14:00,83.4,71.7,29.95,South,179,0.0,3.0,68,0.00,,---,0.00,0.00,VWS V14.00,2013-08-11 02:14:00,
2013-08-10 21:18:00,83.5,71.4,29.96,South,174,0.0,3.0,67,0.00,,---,0.00,0.00,VWS V14.00,2013-08-11 02:18:00,
2013-08-10 21:22:00,83.5,71.4,29.96,South,172,1.0,3.0,67,0.00,,---,0.00,0.00,VWS V14.00,2013-08-11 02:22:00,
2013-08-10 21:26:00,83.3,70.8,29.96,South,172,0.0,3.0,66,0.00,,---,0.00,0.00,VWS V14.00,2013-08-11 02:26:00,
2013-08-10 21:30:00,83.2,70.7,29.96,South,171,0.0,3.0,66,0.00,,---,0.00,0.00,VWS V14.00,2013-08-11 02:30:00,
2013-08-10 21:34:00,83.1,71.4,29.96,SSE,159,3.0,3.0,68,0.00,,---,0.00,0.00,VWS V14.00,2013-08-11 02:34:00,
2013-08-10 21:38:00,83.0,71.4,29.96,SSE,148,0.0,3.0,68,0.00,,---,0.00,0.00,VWS V14.00,2013-08-11 02:38:00,
2013-08-10 21:42:00,82.8,71.2,29.96,SSE,150,0.0,3.0,68,0.00,,---,0.00,0.00,VWS V14.00,2013-08-11 02:42:00,
2013-08-10 21:46:00,82.8,71.6,29.97,SSE,150,0.0,3.0,69,0.00,,---,0.00,0.00,VWS V14.00,2013-08-11 02:46:00,
2013-08-10 21:50:00,82.7,71.1,29.97,SSE,150,0.0,3.0,68,0.00,,---,0.00,0.00,VWS V14.00,2013-08-11 02:50:00,
2013-08-10 21:54:00,82.6,71.4,29.97,SSE,150,0.0,3.0,69,0.00,,---,0.00,0.00,VWS V14.00,2013-08-11 02:54:00,
2013-08-10 22:00:00,82.5,71.3,29.97,SSE,150,0.0,3.0,69,0.00,,---,0.00,0.00,VWS V14.00,2013-08-11 03:00:00,
2013-08-10 22:02:00,82.5,71.3,29.97,SSE,150,0.0,0.0,69,0.00,,---,0.00,0.00,VWS V14.00,2013-08-11 03:02:00,
2013-08-10 22:06:00,82.3,71.5,29.97,SSE,150,0.0,0.0,70,0.00,,---,0.00,0.00,VWS V14.00,2013-08-11 03:06:00,
2013-08-10 22:14:00,82.0,71.3,29.96,SSE,150,0.0,0.0,70,0.00,,---,0.00,0.00,VWS V14.00,2013-08-11 03:14:00,
2013-08-10 22:22:00,82.0,71.7,29.96,SSE,150,0.0,0.0,71,0.00,,---,0.00,0.00,VWS V14.00,2013-08-11 03:22:00,
2013-08-10 22:26:00,81.8,71.5,29.96,SSE,150,0.0,0.0,71,0.00,,---,0.00,0.00,VWS V14.00,2013-08-11 03:26:00,
2013-08-10 22:30:00,81.2,71.3,29.96,SSE,150,0.0,0.0,72,0.00,,---,0.00,0.00,VWS V14.00,2013-08-11 03:30:00,
2013-08-10 22:31:00,81.2,71.3,29.96,SSE,150,0.0,0.0,72,0.00,,---,0.00,0.00,VWS V14.00,2013-08-11 03:31:00,
2013-08-10 22:35:00,80.8,71.3,29.96,SSE,150,0.0,0.0,73,0.00,,---,0.00,0.00,VWS V14.00,2013-08-11 03:35:00,
2013-08-10 22:39:00,80.3,71.3,29.96,SSE,150,0.0,0.0,74,0.00,,---,0.00,0.00,VWS V14.00,2013-08-11 03:39:00,
2013-08-10 22:43:00,80.1,71.5,29.96,SSE,150,0.0,0.0,75,0.00,,---,0.00,0.00,VWS V14.00,2013-08-11 03:43:00,
2013-08-10 22:47:00,79.9,71.3,29.96,SSE,150,0.0,0.0,75,0.00,,---,0.00,0.00,VWS V14.00,2013-08-11 03:47:00,
2013-08-10 22:51:00,79.8,71.2,29.96,SSE,150,0.0,0.0,75,0.00,,---,0.00,0.00,VWS V14.00,2013-08-11 03:51:00,
2013-08-10 22:55:00,79.7,71.5,29.96,SSE,150,0.0,0.0,76,0.00,,---,0.00,0.00,VWS V14.00,2013-08-11 03:55:00,
2013-08-10 22:59:00,79.6,71.4,29.97,SSE,150,0.0,0.0,76,0.00,,---,0.00,0.00,VWS V14.00,2013-08-11 03:59:00,
2013-08-10 23:00:00,79.6,71.4,29.97,SSE,150,0.0,0.0,76,0.00,,---,0.00,0.00,VWS V14.00,2013-08-11 04:00:00,
2013-08-10 23:03:00,79.7,71.9,29.97,South,181,0.0,0.0,77,0.00,,---,0.00,0.00,VWS V14.00,2013-08-11 04:03:00,
2013-08-10 23:07:00,80.1,71.9,29.97,South,181,0.0,0.0,76,0.00,,---,0.00,0.00,VWS V14.00,2013-08-11 04:07:00,
2013-08-10 23:11:00,80.4,71.8,29.97,South,181,0.0,0.0,75,0.00,,---,0.00,0.00,VWS V14.00,2013-08-11 04:11:00,
2013-08-10 23:15:00,80.4,71.8,29.96,South,181,0.0,0.0,75,0.00,,---,0.00,0.00,VWS V14.00,2013-08-11 04:15:00,
2013-08-10 23:19:00,80.5,71.5,29.96,South,181,0.0,0.0,74,0.00,,---,0.00,0.00,VWS V14.00,2013-08-11 04:19:00,
2013-08-10 23:23:00,80.5,71.5,29.96,South,181,0.0,0.0,74,0.00,,---,0.00,0.00,VWS V14.00,2013-08-11 04:23:00,
2013-08-10 23:27:00,80.7,71.2,29.96,South,183,1.0,1.0,73,0.00,,---,0.00,0.00,VWS V14.00,2013-08-11 04:27:00,
2013-08-10 23:30:00,80.7,71.2,29.97,South,183,0.0,1.0,73,0.00,,---,0.00,0.00,VWS V14.00,2013-08-11 04:30:00,
2013-08-10 23:31:00,80.7,71.2,29.97,South,183,0.0,0.0,73,0.00,,---,0.00,0.00,VWS V14.00,2013-08-11 04:31:00,
2013-08-10 23:35:00,80.5,71.8,29.97,South,183,0.0,0.0,75,0.00,,---,0.00,0.00,VWS V14.00,2013-08-11 04:35:00,
2013-08-10 23:39:00,80.1,71.5,29.97,South,183,0.0,0.0,75,0.00,,---,0.00,0.00,VWS V14.00,2013-08-11 04:39:00,
2013-08-10 23:47:00,79.4,71.2,29.98,South,183,0.0,0.0,76,0.00,,---,0.00,0.00,VWS V14.00,2013-08-11 04:47:00,
2013-08-10 23:51:00,79.3,71.5,29.98,South,183,0.0,0.0,77,0.00,,---,0.00,0.00,VWS V14.00,2013-08-11 04:51:00,